This is the latest recevied weather packets stored in our database for station/object EA3ABN-1. If no packets are shown the sender has not sent any weather packets the latest 10 day(s).
| Time | Temp. | Humidity | Pressure | Rain* | Wind** | Luminosity | Snow |
|---|---|---|---|---|---|---|---|
| 1777778691 | 22.78° C | 33% | 1014.4 hPa | - | - | - | - |
| 1777773591 | 22.78° C | 33% | 1015 hPa | - | - | - | - |
| 1777772692 | 22.78° C | 33% | 1015 hPa | - | - | - | - |
| 1777769091 | 23.33° C | 32% | 1015.7 hPa | - | - | - | - |
| 1777768791 | 23.33° C | 33% | 1015.8 hPa | - | - | - | - |
| 1777768507 | 23.33° C | 33% | 1015.8 hPa | - | - | - | - |
| 1777765507 | 23.33° C | 33% | 1016.4 hPa | - | - | - | - |
| 1777764591 | 23.89° C | 33% | 1016.4 hPa | - | - | - | - |
| 1777763438 | 23.89° C | 34% | 1016.5 hPa | - | - | - | - |
| 1777763091 | 23.89° C | 33% | 1016.4 hPa | - | - | - | - |
| 1777762791 | 23.89° C | 33% | 1016.4 hPa | - | - | - | - |
| 1777762491 | 23.89° C | 33% | 1016.4 hPa | - | - | - | - |
| 1777762191 | 23.89° C | 33% | 1016.4 hPa | - | - | - | - |
| 1777758291 | 23.89° C | 33% | 1016.6 hPa | - | - | - | - |
| 1777756491 | 24.44° C | 32% | 1017 hPa | - | - | - | - |
| 1777753193 | 25° C | 33% | 1016.9 hPa | - | - | - | - |
| 1777752892 | 25° C | 33% | 1016.8 hPa | - | - | - | - |
| 1777751407 | 25° C | 33% | 1016.6 hPa | - | - | - | - |
| 1777748391 | 24.44° C | 32% | 1016.7 hPa | - | - | - | - |
| 1777747790 | 24.44° C | 32% | 1016.6 hPa | - | - | - | - |
| 1777745691 | 25.56° C | 32% | 1016.4 hPa | - | - | - | - |
| 1777744190 | 25.56° C | 32% | 1016.3 hPa | - | - | - | - |
| 1777743291 | 26.11° C | 32% | 1016.4 hPa | - | - | - | - |
| 1777741490 | 26.67° C | 32% | 1016.5 hPa | - | - | - | - |
| 1777739391 | 26.67° C | 32% | 1016.9 hPa | - | - | - | - |
* Rain since midnight (hover to see other rain measurements)
** Current wind speed in m/s (hover to see current wind gust speed)